Regional Weather Roundup
Issued by NWS Upton, NY

Current Version | Previous Version | Text Only | Print | Product List | Glossary Off
Versions: 1 2 3 4 5 6 7 8 9 10 11 12 13 14 15 16 17 18 19 20 21 22 23 24 25 26 27 28 29 30 31 32 33 34 35 36 37 38 39 40 41 42 43 44 45 46 47 48 49 50
000 ASUS41 KOKX 270805 RWROKX REGIONAL WEATHER ROUNDUP NATIONAL WEATHER SERVICE NEW YORK NY 300 AM EST FRI FEB 27 2015 NOTE: "FAIR" INDICATES FEW OR NO CLOUDS BELOW 12,000 FEET WITH NO SIGNIFICANT WEATHER AND/OR OBSTRUCTIONS TO VISIBILITY. NYZ071-072-176-178-NJZ106-104-270900- NEW YORK CITY METRO AREA CITY SKY/WX TMP DP RH WIND PRES REMARKS CENTRAL PARK CLEAR 21 5 50 N7 30.22R WCI 12 LAGUARDIA APRT CLOUDY 21 5 50 N7 30.21R WCI 12 KENNEDY INTL MOCLDY 22 6 50 N7 30.23R WCI 13 NEWARK/LIBERTY MOCLDY 20 10 65 NE3 30.22R BRNX BOT. GARD N/A N/A N/A N/A N2 30.20F TETERBORO CLEAR 18 6 59 N5 30.21R WCI 11 $$ NYZ177-179-078>081-270900- LONG ISLAND NEW YORK CITY SKY/WX TMP DP RH WIND PRES REMARKS FARMINGDALE CLOUDY 20 5 52 N7 30.21R WCI 11 ISLIP MOCLDY 19 8 62 NW3 30.19R SHIRLEY CLEAR 17 8 67 N3 30.21R WESTHAMPTON CLEAR 8 2 76 N6 30.20R WCI -2 MONTAUK POINT N/A 24 9 52 NW5 30.20R WCI 18 $$ NYZ052-065-067-270900- HUDSON VALLEY CITY SKY/WX TMP DP RH WIND PRES REMARKS WHITE PLAINS CLEAR 15 0 51 NW8 30.17R WCI 4 NEWBURGH PTCLDY 14 1 57 CALM 30.17S MONTGOMERY MOCLDY 3 -1 83 CALM 30.19R POUGHKEEPSIE CLEAR 7 0 73 CALM 30.23R ALBANY CLOUDY 8 -5 55 N6 30.25R WCI -2 $$ NJZ001-105-106-008-010-013-015-019>022-104-270900- NEW JERSEY CITY SKY/WX TMP DP RH WIND PRES REMARKS NEWARK/LIBERTY MOCLDY 20 10 65 NE3 30.22R TETERBORO CLEAR 18 6 59 N5 30.21R WCI 11 CALDWELL PTCLDY 13 6 74 CALM 30.22R MORRISTOWN CLEAR 14 9 79 CALM 30.21S SOMERVILLE PTCLDY 12 7 80 CALM 30.21R SUSSEX PTCLDY 5 0 79 CALM 30.19R ANDOVER N/A 3 -1 83 CALM 30.19R TRENTON CLOUDY 21 12 68 NW3 30.20R MILLVILLE MOCLDY 16 13 88 CALM 30.20R ATLANTIC CITY CLEAR 16 13 88 CALM 30.21R WRIGHTSTOWN PTCLDY 18 13 81 N3 30.18S TOMS RIVER CLEAR 16 12 86 N6 30.21R WCI 7 BELMAR CLEAR 19 10 68 CALM 30.19S $$ PAZ047>061-062-071-270900- EASTERN PENNSYLVANIA CITY SKY/WX TMP DP RH WIND PRES REMARKS PHILADELPHIA CLOUDY 26 16 65 N6 30.22R WCI 19 ALLENTOWN CLOUDY 17 8 67 CALM 30.20R SCRANTON MIX PCPN 12 2 64 N10 30.19R WCI -1 $$ CTZ002-004>006-009-010-012-RIZ004-006-007-MAZ004-011-015-270900- SOUTHERN NEW ENGLAND IN CT CITY SKY/WX TMP DP RH WIND PRES REMARKS BRADLEY INTL MOCLDY 14 -1 51 CALM 30.18R HARTFORD CLEAR 16 1 51 N5 30.20R WCI 9 DANBURY CLOUDY 7 -1 70 CALM 30.20R WTRBRY/OXFORD MOCLDY 9 -8 47 N7 30.15R WCI -3 BRIDGEPORT CLEAR 17 2 51 N5 30.20R WCI 10 MERIDEN CLEAR 15 0 51 NW6 30.20R WCI 6 NEW HAVEN CLEAR 17 1 49 N6 30.19R WCI 9 CHESTER FAIR 18 3 53 NW6 30.16R WCI 9 GROTON CLEAR 12 9 87 CALM 30.19R WILLIMANTIC MOCLDY 7 2 80 CALM 30.18R IN RI CITY SKY/WX TMP DP RH WIND PRES REMARKS PROVIDENCE CLEAR 12 8 84 W5 30.18R WCI 4 BLOCK ISLAND CLEAR 19 10 68 NW3 30.16R WESTERLY CLEAR 9 6 88 CALM 30.19R IN MA CITY SKY/WX TMP DP RH WIND PRES REMARKS BOSTON PTCLDY 17 0 47 NW13 30.18R WCI 4 WORCESTER CLOUDY 13 -3 49 NW7 30.09R WCI 3 WESTFIELD CLOUDY 11 0 61 CALM 30.17R PROVINCETOWN CLEAR 25 12 58 NW9 30.14R WCI 15 NANTUCKET CLEAR 23 13 65 N8 30.13R WCI 14 $$ ANZ330-335-338-340-345-350-353-355-270900- COASTAL MARINE OBSERVATIONS STATION/POSITION TIME SKY/WX TEMP WIND PRES VSBY WAVE AIR SEA DIR/SP/G HT/PER (UTC) (F) (DEG/KT/KT) (MB) (MI) (FT/S) NY HARB ENTRANCE 0800 25 38 360/ 14/ 16 1022.6 3/10 4S FIRE IS NOT AVBL 20S FIRE ISLAND 0700 36 1022.2 4/ 6 23SW MTP 0800 N/A 4/ 9 HUDSON CANYON NOT AVBL EXECUTION ROCKS NOT AVBL WESTERN LI SOUND NOT AVBL CENTRAL LI SOUND NOT AVBL EASTERN LI SOUND NOT AVBL ROBBINS REEF 0800 21 340/ 4/ 6 1022.0 $$ >>>>>>>>>>>>>>>>>>>>>>>>>>>> KEY <<<<<<<<<<<<<<<<<<<<<<<<<<< > < > SKY/WX - SKY CONDITION/PRESENT WEATHER < > TMP - TEMPERATURE IN FAHRENHEIT < > DP - DEWPOINT IN FAHRENHEIT < > RH - RELATIVE HUMIDITY IN PERCENT < > WIND - DIRECTION AND SPEED IN MPH < > PRES - MEAN SEA LEVEL PRESSURE IN INCHES OF HG < > WCI - WIND CHILL INDEX < > VSB - VISIBILITY IN MILES < > HX - HEAT INDEX < > TC - TEMPERATURE IN CELSIUS < > VRB - VARIABLE WIND DIRECTION < > < >>>>>>>>>>>>>>>>>>>>>>>>>>>> KEY <<<<<<<<<<<<<<<<<<<<<<<<<<<

USA.gov is the U.S. government's official web portal to all federal, state and local government web resources and services.